Lapse_Rate
6.6 6.5 6.4 6.6 6.4 6.4 7.5 7.6 7.4 7.0 6.6 6.9 6.9 7.1 6.7 6.8 6.9 7.7 7.2 7.4 7.5 7.5 7.5 7.4 7.4 7.4 7.3 7.3 7.2 7.1 6.9 6.7 6.5 6.5 6.5 6.2 6.1 6.0 5.9 6.0 6.0 5.9 5.8 5.8 5.8 5.9 5.9 5.9 5.8
6.3 6.5 6.4 6.3 6.5 7.5 8.4 7.7 7.3 6.8 6.6 6.7 6.8 7.0 6.7 6.5 6.9 7.3 7.6 7.5 7.4 7.4 7.5 7.5 7.3 7.4 7.4 7.3 7.3 7.3 7.2 7.0 6.8 6.6 6.7 6.6 6.3 6.1 6.0 6.0 6.1 6.0 5.9 5.8 5.8 5.8 6.0 5.9 5.8
6.3 6.3 6.2 6.0 6.7 7.5 8.2 7.1 6.8 6.8 6.7 6.6 6.5 6.7 6.8 6.5 7.0 7.3 7.6 7.5 7.5 7.5 7.5 7.5 7.4 7.5 7.6 7.5 7.5 7.6 7.4 7.3 7.1 7.0 7.0 7.0 6.7 6.4 6.1 6.1 6.0 6.0 6.0 5.9 5.8 5.8 5.9 5.9 5.8
6.3 6.2 6.1 6.1 7.0 7.2 7.2 6.4 6.8 6.6 6.4 6.5 6.6 6.3 6.5 6.7 6.9 7.3 7.4 7.5 7.5 7.5 7.6 7.8 7.7 7.7 7.8 7.7 7.7 7.7 7.6 7.4 7.3 7.1 7.1 7.0 6.9 6.6 6.3 6.1 5.9 5.9 6.0 5.9 5.9 5.9 5.8 5.9 5.8
6.2 6.0 5.9 6.3 6.9 7.0 6.9 6.5 6.6 6.5 6.4 6.4 6.4 6.2 6.4 5.8 6.4 7.0 7.5 7.6 7.5 7.6 7.6 7.7 7.8 7.8 7.7 7.7 7.7 7.7 7.6 7.5 7.4 7.3 7.2 7.1 7.0 6.8 6.6 6.3 6.0 6.0 6.0 5.9 5.9 5.8 5.8 5.8 5.8
6.0 5.9 5.9 6.9 7.3 7.0 6.8 6.7 6.5 6.4 6.1 5.9 6.0 5.8 6.1 6.1 6.2 6.5 7.1 7.4 7.4 7.6 7.8 7.8 7.9 7.9 7.7 7.7 7.7 7.7 7.7 7.6 7.5 7.4 7.2 7.1 7.1 6.9 6.8 6.7 6.4 6.2 6.1 6.1 6.0 5.8 5.8 5.7 5.7
6.3 5.4 6.2 6.6 7.0 6.6 6.5 7.0 6.5 6.3 6.1 5.7 5.1 6.0 5.6 5.5 6.1 6.4 6.8 7.3 7.5 7.4 7.7 7.8 7.9 8.0 7.8 7.8 7.8 7.8 7.8 7.6 7.6 7.5 7.4 7.2 7.0 7.0 6.8 6.6 6.6 6.4 6.2 6.1 6.1 5.8 5.8 5.6 5.6
6.1 5.2 5.9 6.0 6.5 6.6 6.2 6.8 6.4 6.2 5.7 5.7 5.8 5.4 5.5 5.9 6.3 6.3 6.7 7.1 7.4 7.4 7.5 7.6 7.7 7.8 7.9 7.8 7.9 7.8 7.7 7.6 7.6 7.6 7.5 7.3 7.2 6.9 6.8 6.8 6.9 6.7 6.4 6.2 6.1 6.0 5.8 5.6 5.6
5.7 5.1 5.9 6.7 6.2 6.3 5.7 6.4 5.5 6.0 5.9 5.4 5.9 5.7 5.7 6.2 6.2 6.3 6.4 6.8 7.3 7.4 7.5 7.5 7.7 7.8 7.8 7.8 7.9 7.9 7.7 7.6 7.6 7.7 7.7 7.5 7.4 7.1 6.8 6.8 6.9 6.9 6.6 6.4 6.1 6.1 6.1 5.7 5.7
5.6 5.2 6.1 6.2 5.9 5.7 5.6 6.1 5.8 5.6 5.6 5.3 6.0 5.6 5.5 5.6 6.0 6.1 6.2 6.5 6.9 7.2 7.3 7.3 7.3 7.5 7.6 7.8 7.9 7.7 7.7 7.8 7.8 7.8 7.9 7.8 7.4 7.1 6.9 6.6 6.6 6.8 6.8 6.5 6.4 6.2 6.2 5.8 5.8
5.7 5.5 5.6 5.1 6.0 5.4 5.5 5.7 5.7 5.4 5.2 6.0 5.7 5.8 5.4 5.3 5.2 5.8 6.0 6.4 6.6 6.8 6.9 6.9 7.0 7.1 7.4 7.7 7.7 7.7 7.7 7.6 7.7 7.8 7.7 7.8 7.6 7.4 7.2 6.9 6.7 6.7 6.8 6.6 6.6 6.4 6.2 6.0 5.9
5.7 6.3 6.1 5.7 5.6 5.5 5.2 5.1 6.0 5.1 6.2 6.0 5.7 5.7 5.8 5.6 5.5 5.5 5.9 6.1 6.3 6.5 6.7 6.9 7.0 7.1 7.4 7.5 7.6 7.7 7.7 7.7 7.6 7.8 7.7 7.7 7.7 7.5 7.3 7.3 6.8 6.6 6.9 6.6 6.6 6.6 6.4 6.1 5.9
5.7 6.0 5.6 5.9 5.7 6.1 5.7 5.7 5.8 5.1 6.1 5.6 5.3 5.4 5.6 5.4 5.5 5.5 5.7 6.1 6.3 6.5 6.6 6.8 6.8 6.9 7.2 7.3 7.5 7.6 7.7 7.9 7.9 7.6 7.7 7.7 7.8 7.7 7.3 7.2 7.2 6.7 6.8 6.9 6.7 6.7 6.7 6.3 6.0
5.0 5.5 5.3 5.2 5.6 5.8 5.7 5.2 4.7 6.0 5.7 5.4 5.2 5.3 5.3 5.5 5.5 5.6 5.6 5.9 6.3 6.7 6.7 7.0 7.2 7.6 7.5 7.6 7.6 7.7 7.8 7.7 8.0 7.9 7.6 7.5 7.6 7.7 7.6 7.4 7.3 7.1 6.9 6.9 6.8 6.8 6.7 6.4 6.2
5.3 5.1 4.8 4.9 5.4 5.1 5.0 4.7 5.0 5.6 5.6 5.6 5.2 4.9 5.0 5.1 5.5 5.5 5.7 5.9 6.2 6.3 6.6 6.9 7.0 7.2 7.4 7.6 7.7 7.7 7.8 7.7 7.4 7.5 7.6 7.3 7.3 7.6 7.6 7.5 7.2 7.1 7.1 7.1 6.9 6.9 6.9 6.5 6.3
4.9 4.6 5.3 5.6 5.3 5.1 5.0 5.6 5.0 4.9 5.4 5.3 5.2 5.0 5.1 5.2 5.3 5.4 5.7 5.9 6.0 6.5 6.7 6.9 7.1 7.2 7.2 7.4 7.4 7.3 7.6 7.6 7.4 7.6 7.6 7.4 7.2 7.5 7.5 7.5 7.5 7.4 7.2 7.1 6.9 6.9 7.0 6.7 6.3
4.5 5.7 5.9 5.8 5.1 5.4 5.0 5.5 4.9 4.9 5.1 5.0 5.2 5.3 5.2 5.6 5.5 5.8 5.9 6.1 6.3 6.4 6.6 7.0 7.0 7.2 7.3 7.2 7.3 7.3 7.3 7.3 7.3 7.3 7.4 7.3 7.5 7.6 7.9 7.8 7.5 7.7 7.4 7.4 7.2 7.0 6.9 6.9 6.4
6.0 5.9 6.0 5.7 5.5 5.3 5.1 5.1 4.9 5.0 5.1 5.0 5.2 5.2 5.7 6.0 6.0 6.0 5.9 6.2 6.5 6.6 6.7 6.6 6.6 6.8 6.9 7.1 7.1 6.9 7.1 7.2 7.3 7.4 7.7 7.7 7.9 8.0 8.3 7.9 7.7 7.7 7.5 7.7 7.4 7.1 6.9 6.9 6.5
5.8 5.9 6.0 5.7 5.4 4.9 5.2 5.2 5.1 5.5 5.2 5.1 5.0 5.5 5.8 6.0 6.0 6.0 6.1 6.4 6.6 6.7 6.8 6.7 6.7 6.7 6.5 6.5 6.7 7.0 7.1 7.5 8.0 7.9 8.0 8.2 8.3 8.2 8.4 7.9 7.6 7.7 7.6 7.9 7.7 7.2 7.1 7.0 6.6
5.4 5.4 5.6 5.6 5.8 5.1 5.4 5.5 5.5 5.6 5.6 5.5 5.4 5.8 5.7 5.6 6.0 6.1 6.3 6.3 6.2 6.2 6.5 6.8 6.8 6.6 6.5 6.2 6.2 6.1 6.4 7.2 7.7 8.3 8.3 8.3 8.4 8.3 8.2 8.0 7.7 7.7 7.9 8.1 7.9 7.5 7.3 7.1 6.7
5.1 5.4 5.7 5.9 5.9 5.5 5.4 5.7 6.1 5.8 5.9 6.1 6.1 6.0 5.8 5.9 5.9 6.1 6.3 6.5 6.6 6.7 6.7 6.7 6.8 6.8 6.2 6.2 6.2 6.5 7.0 7.3 7.5 8.1 8.6 8.6 8.6 8.4 8.3 8.1 7.8 7.7 8.0 8.2 8.2 7.7 7.4 7.0 6.8
5.4 5.6 5.6 5.9 6.0 7.0 5.8 8.1 6.2 6.5 6.4 6.6 6.3 6.1 5.9 6.0 6.2 6.3 6.4 6.7 6.8 7.1 7.0 6.4 6.5 6.4 6.0 6.1 6.7 7.2 7.4 7.5 7.8 8.3 8.6 8.8 8.6 8.4 8.4 7.9 7.7 7.5 8.0 8.2 8.1 7.5 7.3 6.9 7.1
5.7 5.9 5.9 6.2 6.2 6.8 6.7 6.9 8.2 6.7 6.9 6.4 5.9 6.1 6.2 6.3 6.2 6.2 6.4 6.7 6.3 6.7 6.6 6.3 6.1 6.1 6.8 6.8 7.0 7.1 7.2 7.5 8.1 8.4 8.6 8.7 8.8 8.8 8.5 8.0 7.8 5.7 6.9 8.0 8.1 7.4 7.0 6.9 6.9
6.6 6.5 6.1 6.5 6.9 6.9 7.3 7.4 9.3 7.0 7.4 6.8 5.9 6.4 6.4 6.4 6.3 6.3 6.3 6.3 6.0 5.8 5.8 5.9 6.2 6.5 6.4 7.0 7.0 6.9 7.4 7.8 8.1 8.5 8.5 8.5 8.6 8.8 8.6 7.8 7.6 7.3 7.4 7.7 7.4 7.7 7.2 6.8 6.9
5.6 6.3 7.5 7.6 7.3 7.2 8.0 8.0 9.2 7.2 6.5 6.4 6.1 6.4 6.5 6.4 6.4 6.4 6.4 6.4 6.2 5.9 5.9 6.4 6.6 6.7 6.9 7.0 7.5 7.6 7.7 8.1 8.3 8.8 8.8 8.6 8.8 8.5 8.6 8.3 8.0 7.4 6.9 6.9 7.4 7.4 7.1 7.1 6.9
6.4 7.2 7.9 7.9 9.1 9.4 7.1 8.2 7.9 6.7 6.7 6.9 6.8 6.6 6.5 6.5 6.4 6.3 6.4 6.4 6.2 5.8 6.2 6.5 6.6 7.1 7.2 7.5 7.9 8.1 7.9 8.4 8.6 8.8 8.7 8.8 8.8 8.7 8.6 8.2 7.5 7.2 6.5 6.3 7.3 7.3 7.3 6.8 6.9
7.9 7.9 8.6 8.5 8.5 8.9 9.1 8.4 6.9 6.0 6.6 6.7 6.7 6.5 6.4 6.3 6.4 6.5 6.5 6.5 6.4 6.2 6.2 6.1 6.6 7.0 7.3 7.6 8.2 8.3 8.3 8.7 8.8 8.8 8.2 8.5 8.7 8.5 8.2 7.5 7.3 6.9 6.1 6.8 7.0 7.4 7.2 7.0 6.9
8.3 8.5 8.2 8.5 8.8 9.0 9.6 9.4 9.2 5.8 6.1 6.4 6.3 6.2 6.2 6.3 6.5 6.5 6.5 6.3 6.5 6.5 6.6 6.1 6.3 7.2 7.3 7.7 7.8 8.2 8.3 8.4 8.3 8.3 7.9 8.2 8.5 8.4 8.1 7.6 7.0 6.8 5.8 6.4 6.7 7.3 7.2 7.0 7.1
8.2 8.4 8.1 7.8 8.0 9.0 9.2 9.2 7.8 6.1 6.7 6.5 6.4 6.3 6.2 6.3 6.4 6.4 6.4 6.2 6.5 6.5 6.4 6.2 6.8 6.8 7.2 7.9 7.4 7.9 8.0 8.0 8.1 8.0 7.9 8.0 8.1 7.9 7.8 7.1 7.1 6.1 6.4 6.3 6.6 7.5 7.3 7.3 7.1
7.5 7.1 7.5 8.2 8.7 8.1 7.9 8.5 7.3 7.3 7.0 6.3 6.0 6.0 5.9 5.9 6.0 6.0 6.3 6.5 6.7 6.5 6.4 6.5 6.5 6.9 6.9 7.2 7.1 7.1 7.3 7.6 7.4 7.5 7.3 7.6 7.8 7.9 7.7 7.2 6.7 6.0 6.6 6.7 7.0 7.3 7.5 7.5 7.2
Wind_Speed
7 4 4 5 6 6 10 3 2 7 5 2 4 5 7 10 4 6 12 13 3 10 17 21 17 18 16 15 15 15 15 16 17 17 17 16 16 17 18 19 18 17 18 18 17 15 15 13 14
5 4 4 2 7 10 8 4 9 4 5 2 2 6 6 3 4 11 12 15 5 8 15 21 19 19 18 16 17 16 15 16 17 18 18 17 17 17 18 18 18 16 16 17 17 14 16 12 14
5 5 4 4 8 13 9 2 1 5 3 2 2 3 1 1 8 11 17 17 6 9 16 19 22 21 19 18 18 17 17 17 18 19 20 19 18 18 17 18 17 16 17 17 17 15 13 14 15
5 5 3 7 17 12 8 3 2 4 5 3 4 6 3 6 5 12 16 11 6 9 14 16 15 20 21 19 18 18 17 17 17 17 18 18 19 19 17 17 17 16 15 15 16 14 12 15 16
4 4 8 11 18 14 8 7 8 10 5 8 6 9 7 7 8 13 14 8 4 7 10 11 8 11 17 18 18 17 16 17 17 19 20 20 20 19 18 19 18 18 17 16 15 13 14 14 15
6 5 8 13 17 13 8 9 11 12 10 10 10 9 9 3 12 13 12 9 3 7 8 10 11 8 12 15 15 16 16 17 17 17 17 19 19 19 19 20 21 19 18 18 16 15 14 14 15
12 8 14 16 18 14 11 2 9 8 5 6 1 9 6 5 13 12 10 7 3 6 9 9 15 15 8 12 16 16 15 15 16 16 17 17 18 19 20 19 19 20 20 18 17 17 16 15 16
8 7 14 10 15 19 9 9 7 10 11 4 6 5 6 12 14 11 7 6 3 5 9 10 10 11 14 14 10 14 16 16 15 16 17 17 17 18 19 19 18 19 19 19 18 18 17 18 17
5 8 13 20 12 11 3 10 4 3 8 7 7 9 11 15 14 11 8 4 3 5 9 9 9 8 8 12 13 10 10 13 15 15 15 15 16 17 18 19 21 18 20 20 17 18 19 19 18
12 12 15 12 11 11 10 11 11 9 12 12 14 12 8 9 9 10 9 8 2 6 10 11 10 8 8 8 8 14 15 15 16 16 16 16 16 16 17 17 15 17 19 19 18 17 18 20 15
10 18 16 9 13 11 14 15 13 15 16 16 14 13 11 10 11 10 10 8 6 3 6 9 12 13 12 9 8 8 8 11 13 18 18 19 16 16 16 14 16 17 16 16 15 14 16 16 16
12 16 15 14 12 15 16 16 17 15 18 15 14 14 12 11 11 10 10 9 8 6 5 8 11 11 13 8 8 7 7 9 7 12 15 11 7 11 9 8 14 15 17 15 15 13 15 15 17
18 16 14 15 14 16 16 19 19 18 16 14 12 9 12 8 8 9 8 8 7 6 6 8 9 12 12 14 11 11 11 10 12 14 16 13 11 9 10 9 11 11 15 13 10 9 10 11 14
2 12 12 10 14 16 16 17 15 12 13 10 9 9 6 6 6 7 7 9 8 8 7 7 10 11 12 12 14 12 11 12 11 12 13 17 13 11 9 8 9 11 12 11 12 10 10 9 9
13 16 16 17 17 15 12 19 20 17 13 10 9 8 5 4 6 5 6 9 10 9 9 8 7 11 13 15 14 12 11 12 12 10 17 17 16 13 12 10 10 9 12 11 11 9 8 8 8
11 14 14 5 14 13 11 13 4 4 8 11 8 6 5 5 3 4 6 8 10 13 12 11 9 10 12 15 13 12 13 12 12 11 16 22 19 19 12 11 11 11 8 9 8 8 7 7 9
16 15 16 10 11 6 14 9 7 7 7 11 11 10 5 4 2 5 7 9 10 11 14 15 12 11 11 15 13 15 16 13 12 11 11 18 19 19 12 10 11 13 7 8 8 7 8 8 9
19 19 16 14 8 12 12 13 10 17 13 11 11 7 5 3 4 5 7 9 10 11 12 14 13 13 13 10 13 13 13 13 13 13 13 16 14 17 12 9 10 9 8 8 8 9 8 7 7
10 15 14 8 8 6 15 17 16 15 13 13 10 7 3 2 5 8 10 11 12 12 13 14 16 15 11 10 11 12 13 13 14 15 20 18 15 14 16 10 10 10 10 10 10 8 9 7 7
22 19 19 15 16 11 14 16 13 15 15 8 8 8 4 2 6 10 13 14 14 14 14 15 16 16 14 11 10 13 12 14 14 13 13 16 17 16 15 13 11 12 9 11 11 13 5 5 8
21 21 16 15 5 12 13 18 14 6 7 8 7 5 3 4 7 10 12 14 15 17 17 16 17 17 16 17 12 12 15 12 11 14 12 16 17 16 16 14 10 10 9 9 12 11 12 6 7
22 16 15 12 9 10 6 4 12 8 11 10 8 5 3 5 8 10 11 13 15 15 17 17 17 17 16 17 15 17 16 16 15 15 13 12 16 16 16 16 14 13 9 10 10 9 11 10 9
19 7 14 15 13 13 15 7 6 13 10 12 9 5 4 7 9 12 13 13 14 15 16 16 17 17 18 16 15 15 18 16 14 11 13 12 14 17 18 16 18 17 12 12 12 14 15 11 8
9 6 10 10 11 13 16 12 10 13 11 11 8 5 6 9 11 12 13 13 14 15 15 16 16 17 18 17 17 18 22 22 16 14 10 10 10 12 17 16 16 14 12 14 13 13 16 13 11
21 12 6 8 8 12 2 10 4 10 6 5 6 5 8 10 12 13 16 17 16 18 18 16 17 20 19 19 18 18 23 23 19 18 10 10 9 9 15 19 15 13 17 16 14 12 15 15 12
22 19 9 10 11 10 6 8 6 10 12 10 7 6 8 11 12 15 16 16 17 18 19 19 18 20 20 19 19 18 21 13 13 12 8 9 10 12 16 17 16 14 11 12 12 10 13 15 13
15 19 17 9 5 6 8 7 8 9 8 6 5 6 8 11 12 15 17 16 17 17 20 19 18 18 19 19 18 20 15 15 10 10 8 9 13 13 15 16 11 10 8 12 14 11 13 12 10
6 8 7 8 12 15 12 10 3 8 5 5 6 6 7 10 13 14 16 17 16 17 18 17 16 17 19 20 17 16 7 10 12 10 12 12 13 12 13 13 11 8 12 14 14 12 10 10 9
4 6 4 4 5 7 11 2 4 8 5 5 8 8 10 11 13 13 14 16 16 17 18 16 18 20 20 19 18 17 7 8 9 10 10 9 11 16 15 14 10 9 9 11 10 10 14 15 10
3 2 3 5 8 4 6 6 4 5 5 7 7 8 8 10 11 12 14 16 17 17 18 17 17 17 19 18 17 15 13 11 4 7 10 12 11 12 14 16 15 11 12 9 10 12 9 12 11
Wind_Direction
194 208 242 238 245 236 253 237 319 174 162 123 299 264 319 312 307 311 343 14 260 184 170 173 164 162 157 150 143 142 149 158 158 162 163 166 166 162 163 162 166 167 165 158 163 166 175 173 168
172 178 212 257 252 242 257 187 222 146 72 337 186 264 241 106 350 314 320 359 332 195 177 178 170 165 158 154 148 144 146 149 156 160 161 163 166 165 166 163 167 172 166 161 168 173 177 169 170
175 217 226 238 247 249 287 52 330 142 88 330 259 259 261 354 357 344 339 322 265 208 189 182 171 164 159 157 156 153 151 151 153 159 160 162 166 167 167 164 166 169 168 168 174 178 168 170 170
182 188 207 240 249 245 267 24 105 179 195 252 310 256 212 96 359 345 339 327 263 199 196 148 177 164 163 161 160 163 160 155 154 152 155 161 167 167 167 164 168 171 166 174 180 179 170 169 168
209 240 235 239 254 261 256 267 259 276 271 284 283 260 258 142 3 359 350 334 273 189 203 172 185 175 162 166 168 166 165 163 160 159 159 162 168 169 166 170 171 172 172 177 183 174 174 175 168
198 274 234 246 256 242 251 265 253 259 269 255 252 272 263 168 359 354 347 333 271 206 189 192 176 196 180 171 167 168 170 174 172 166 165 166 168 165 169 174 181 176 179 182 182 178 178 180 174
248 232 255 268 272 265 257 278 234 261 256 241 346 270 280 247 348 341 343 325 260 200 188 185 190 190 187 178 173 174 175 182 182 178 170 170 168 168 173 179 187 186 189 190 187 181 176 184 186
250 259 257 249 258 265 253 240 263 253 269 17 270 254 274 326 328 318 321 329 264 201 189 186 187 187 198 194 186 179 183 189 190 187 183 181 177 178 183 183 190 195 194 195 193 186 179 188 193
243 246 248 247 253 260 215 251 158 332 260 258 258 275 299 308 315 312 310 300 254 208 185 183 182 179 195 208 190 189 193 193 194 193 191 187 195 192 193 201 189 200 200 196 195 189 187 191 195
218 238 259 276 268 258 261 245 274 269 263 261 275 272 280 289 302 319 316 322 284 220 198 185 183 182 184 191 207 210 204 209 206 203 193 205 209 203 205 201 202 194 198 196 201 198 192 192 206
215 243 268 245 259 264 266 266 266 263 270 266 279 286 293 296 298 303 301 304 320 304 213 211 193 192 198 195 201 204 220 222 213 212 207 205 209 205 203 202 205 208 203 204 200 199 209 205 211
247 236 259 250 257 254 257 268 267 269 268 277 274 280 288 282 291 296 297 315 303 298 260 211 215 205 200 197 204 208 209 206 206 211 207 211 208 211 203 204 206 210 200 213 203 203 211 211 214
240 254 250 249 247 250 266 262 264 266 269 273 269 271 277 287 284 293 316 309 327 303 287 274 217 216 213 206 201 204 212 212 215 214 213 211 209 213 212 209 211 205 209 206 200 204 202 209 215
280 249 251 247 239 244 252 255 244 248 259 256 246 256 256 280 312 307 318 329 338 337 334 323 273 231 229 224 222 212 210 214 209 216 211 210 218 213 205 201 209 209 208 194 209 194 200 210 213
256 253 244 243 245 239 248 256 246 252 262 254 221 245 262 291 312 336 350 330 335 332 333 331 303 273 242 234 234 230 225 216 209 208 210 207 215 215 206 205 210 209 209 193 201 184 196 206 206
233 240 249 194 224 226 215 260 196 222 221 228 258 251 268 304 338 19 358 342 339 333 330 325 322 304 272 245 237 231 227 224 225 207 206 211 208 212 205 208 204 192 190 181 191 181 181 195 210
221 251 222 230 206 190 211 255 256 186 211 254 262 266 296 297 117 23 355 346 339 333 328 324 321 307 300 272 248 237 232 225 222 218 212 206 204 207 203 202 207 186 183 187 189 183 178 189 211
237 230 248 235 179 226 223 241 248 272 262 250 260 276 256 276 20 6 351 346 337 332 326 318 317 314 306 289 260 242 233 222 226 222 218 211 202 195 202 199 192 182 189 186 189 193 189 193 200
285 267 248 205 221 262 253 257 254 249 251 241 246 197 194 337 342 355 359 352 341 337 325 320 313 313 308 294 274 241 233 223 225 223 220 210 206 198 197 193 187 185 190 184 184 184 183 191 179
247 249 254 264 259 244 259 254 242 248 248 245 180 163 136 333 353 357 354 350 348 339 335 323 312 313 307 294 277 275 239 233 230 232 221 210 207 196 195 186 185 189 189 186 184 190 179 189 180
237 245 252 254 212 234 263 261 237 201 166 155 140 123 129 30 359 358 353 349 341 337 335 326 317 311 305 297 282 267 262 242 221 224 217 209 203 199 186 182 178 187 189 191 183 184 184 176 184
237 221 244 250 249 253 194 262 174 177 171 182 161 162 77 28 5 357 348 344 341 337 332 327 320 313 306 302 288 264 263 235 225 224 213 204 192 186 184 177 177 180 178 181 184 186 193 192 189
247 230 233 241 250 261 238 251 173 177 181 175 164 121 70 21 5 356 351 342 334 342 332 328 323 317 311 303 285 270 254 249 235 224 211 200 188 184 189 190 162 187 171 179 183 191 206 198 194
260 238 235 239 240 244 245 227 172 188 188 146 137 100 30 9 359 354 349 343 341 340 337 328 330 322 310 304 289 263 262 250 231 220 216 195 191 183 190 192 188 186 175 171 183 192 206 202 201
215 216 211 226 218 242 181 226 208 134 120 103 110 57 20 6 358 351 350 346 343 340 338 334 336 320 317 308 294 273 264 238 232 227 204 189 194 188 192 187 188 187 182 178 192 178 203 206 206
197 203 218 214 227 231 147 230 114 94 89 91 75 35 10 2 360 355 352 348 342 340 339 340 340 326 324 313 304 291 260 223 223 220 200 200 199 206 198 206 202 208 192 162 182 181 204 205 210
193 217 241 279 270 272 203 149 113 113 109 102 62 20 10 5 2 357 353 354 342 346 342 341 340 328 321 321 316 307 240 215 206 206 198 215 208 209 203 201 188 171 217 186 186 190 197 201 205
256 169 202 219 245 241 239 241 185 141 114 71 44 22 15 7 2 360 357 352 343 350 343 340 345 332 331 330 324 314 223 207 203 196 200 191 205 190 174 175 168 175 190 199 182 188 193 198 206
169 191 232 280 276 271 270 251 90 113 81 40 30 20 11 1 1 358 354 352 352 351 350 344 352 347 341 336 334 338 290 218 206 190 172 173 169 169 166 166 153 166 187 187 186 182 196 203 210
282 278 270 251 220 255 295 285 142 116 64 9 13 14 3 0 2 358 358 358 355 357 353 356 352 348 341 334 338 344 347 353 193 197 182 178 175 173 174 165 165 155 196 185 192 197 191 196 199